Temperature
-0 -0 -0 -0 -0 -0 -0 0 0 0 0 0 0 0 0 0 0 -0 -0 0 0 0 0 0 0 0 0 0 0 0 0 -0 -0 0 1 1 1 1 2 2 2 3 3
-1 -1 -1 -1 -1 -1 -1 -1 -1 -0 -0 -0 -0 -0 -0 -1 -1 -1 -1 -1 -1 -1 -1 -1 -1 -1 -1 -1 -0 -0 -1 -1 -1 -1 -0 0 0 1 1 1 1 2 2
-2 -2 -2 -2 -2 -2 -2 -2 -1 -1 -1 -1 -1 -1 -1 -1 -1 -1 -1 -1 -1 -1 -1 -1 -1 -1 -1 -1 -1 -1 -1 -1 -1 -1 -1 -1 -1 -0 -0 0 1 1 1
-2 -2 -2 -2 -2 -2 -2 -2 -2 -2 -2 -2 -2 -2 -2 -2 -2 -2 -2 -2 -2 -2 -2 -2 -2 -2 -2 -2 -2 -2 -2 -2 -2 -2 -2 -2 -1 -1 -1 -1 -0 0 1
-3 -3 -3 -3 -3 -3 -3 -3 -3 -3 -3 -3 -3 -3 -3 -3 -3 -3 -3 -3 -3 -3 -3 -3 -3 -3 -3 -3 -3 -3 -2 -2 -2 -2 -2 -2 -2 -2 -2 -1 -1 -1 -0
-3 -4 -4 -4 -4 -4 -4 -4 -4 -4 -4 -4 -4 -4 -4 -4 -4 -4 -4 -4 -4 -4 -4 -3 -3 -3 -3 -3 -3 -3 -3 -3 -3 -3 -3 -3 -2 -2 -2 -2 -2 -2 -1
-4 -4 -4 -4 -4 -4 -4 -4 -4 -4 -5 -5 -5 -5 -5 -4 -4 -5 -5 -5 -5 -5 -4 -4 -4 -4 -4 -4 -4 -4 -4 -4 -4 -3 -3 -3 -3 -3 -3 -2 -2 -2 -2
-5 -5 -5 -5 -5 -5 -5 -5 -5 -5 -5 -5 -5 -5 -5 -5 -5 -5 -5 -6 -5 -5 -5 -5 -5 -5 -4 -5 -4 -4 -4 -4 -4 -4 -4 -3 -3 -3 -3 -3 -3 -3 -3
-5 -5 -5 -6 -6 -6 -6 -6 -6 -6 -6 -6 -6 -6 -6 -6 -6 -6 -6 -6 -6 -6 -6 -6 -6 -6 -5 -5 -5 -5 -5 -4 -4 -4 -4 -4 -4 -3 -3 -3 -3 -3 -3
-6 -6 -6 -6 -6 -6 -6 -7 -7 -7 -7 -7 -7 -7 -7 -7 -7 -6 -7 -7 -7 -7 -6 -6 -6 -6 -6 -6 -6 -6 -5 -5 -5 -4 -4 -4 -4 -4 -4 -4 -4 -4 -4
-7 -7 -7 -7 -7 -7 -7 -7 -7 -8 -8 -8 -8 -8 -8 -7 -7 -7 -7 -7 -7 -7 -7 -7 -7 -7 -7 -7 -6 -6 -6 -6 -5 -5 -5 -5 -5 -5 -4 -4 -4 -4 -4
-7 -8 -7 -8 -8 -8 -8 -8 -8 -8 -8 -8 -8 -8 -8 -8 -8 -8 -8 -8 -8 -8 -8 -8 -8 -8 -7 -7 -7 -7 -7 -7 -6 -6 -6 -5 -5 -5 -5 -5 -5 -5 -5
-8 -8 -8 -8 -8 -8 -9 -9 -9 -9 -9 -9 -9 -9 -9 -9 -9 -9 -9 -8 -8 -9 -8 -8 -8 -8 -8 -8 -8 -7 -7 -7 -7 -7 -7 -6 -6 -6 -6 -5 -5 -5 -5
-9 -9 -9 -9 -9 -9 -9 -9 -9 -9 -9 -10 -10 -9 -9 -9 -9 -9 -9 -9 -9 -9 -9 -9 -9 -9 -8 -8 -8 -8 -8 -8 -8 -8 -7 -7 -7 -6 -6 -6 -6 -5 -5
-9 -9 -9 -9 -9 -9 -10 -10 -10 -10 -10 -10 -10 -10 -10 -10 -10 -10 -10 -9 -9 -9 -9 -9 -9 -9 -9 -9 -9 -9 -8 -8 -8 -8 -8 -8 -7 -7 -7 -7 -6 -6 -6
-10 -10 -10 -10 -10 -10 -10 -10 -10 -10 -10 -10 -10 -10 -10 -10 -10 -10 -10 -10 -10 -10 -10 -10 -10 -10 -10 -10 -10 -9 -9 -9 -9 -9 -8 -8 -8 -8 -7 -7 -7 -7 -6
-10 -10 -10 -10 -11 -11 -11 -11 -11 -11 -10 -10 -10 -10 -10 -10 -10 -10 -10 -10 -10 -10 -10 -10 -10 -10 -10 -10 -10 -10 -10 -9 -9 -9 -9 -9 -9 -8 -8 -8 -8 -7 -7
-11 -11 -11 -11 -11 -11 -11 -11 -11 -11 -11 -11 -11 -11 -10 -10 -10 -10 -10 -10 -10 -10 -10 -10 -10 -10 -11 -10 -10 -10 -10 -10 -10 -10 -10 -9 -9 -9 -9 -8 -8 -8 -8
-11 -11 -11 -11 -12 -12 -12 -12 -12 -12 -11 -11 -11 -11 -11 -11 -11 -11 -11 -11 -11 -11 -11 -11 -11 -11 -11 -11 -11 -11 -11 -10 -10 -10 -10 -10 -10 -9 -9 -9 -9 -8 -8
-11 -11 -12 -12 -12 -12 -12 -12 -12 -12 -12 -12 -12 -12 -12 -11 -11 -11 -11 -11 -12 -12 -12 -11 -11 -11 -11 -11 -11 -11 -11 -11 -11 -10 -10 -10 -10 -10 -10 -9 -9 -9 -8
-12 -12 -12 -12 -12 -12 -12 -12 -12 -12 -12 -12 -12 -12 -12 -12 -12 -12 -12 -12 -12 -12 -12 -12 -12 -11 -11 -11 -11 -11 -11 -11 -11 -11 -11 -10 -10 -10 -10 -10 -10 -9 -9
-12 -12 -12 -13 -13 -13 -13 -12 -12 -13 -13 -13 -13 -12 -12 -12 -12 -12 -12 -12 -12 -12 -12 -12 -12 -12 -12 -12 -12 -12 -11 -11 -11 -11 -11 -11 -10 -10 -10 -10 -10 -9 -9
-12 -13 -13 -13 -13 -13 -13 -13 -13 -13 -13 -13 -13 -13 -13 -13 -13 -13 -13 -13 -13 -12 -12 -12 -12 -12 -12 -12 -12 -12 -12 -11 -11 -11 -11 -11 -11 -10 -10 -10 -10 -10 -10
-13 -13 -13 -13 -13 -13 -13 -13 -13 -13 -13 -13 -13 -13 -13 -13 -13 -13 -13 -13 -13 -13 -13 -13 -12 -12 -12 -12 -12 -12 -12 -11 -11 -11 -11 -11 -11 -11 -10 -10 -10 -10 -10
-13 -13 -13 -13 -14 -14 -14 -14 -14 -14 -14 -14 -14 -14 -14 -13 -13 -13 -13 -13 -13 -13 -13 -13 -13 -13 -12 -12 -12 -12 -12 -12 -11 -11 -11 -11 -11 -11 -11 -11 -11 -10 -10
-14 -14 -14 -14 -14 -14 -14 -14 -14 -14 -14 -14 -14 -14 -14 -14 -14 -14 -14 -13 -13 -13 -13 -13 -13 -13 -12 -12 -12 -12 -12 -11 -11 -11 -11 -11 -11 -11 -11 -11 -11 -11 -11
Wind_Speed
3 2 2 2 2 2 1 1 1 0 0 1 2 2 3 3 3 2 3 3 3 3 3 4 4 4 4 3 3 4 4 4 7 6 4 3 4 4 6 8 9 9 9
3 3 2 2 2 2 2 1 1 1 1 2 2 3 3 3 3 3 4 4 4 4 4 4 5 4 5 4 4 5 5 5 6 7 6 4 5 5 5 5 7 8 9
3 3 2 2 2 2 2 2 1 1 2 3 3 3 3 3 4 4 4 5 5 5 5 5 5 5 6 5 5 5 5 5 5 6 6 4 4 4 4 5 6 7 9
2 2 2 3 3 2 2 2 2 2 2 3 4 4 4 4 5 5 4 5 5 5 5 5 5 6 6 6 6 6 6 6 6 6 6 5 5 4 4 5 5 5 6
2 2 2 2 2 2 2 2 2 3 4 3 4 4 5 5 5 5 5 5 5 5 6 6 7 7 9 8 7 6 6 6 6 7 6 6 5 4 5 4 6 5 6
2 2 2 2 2 2 2 2 3 3 3 3 4 5 5 6 8 9 7 6 6 6 7 7 7 8 10 11 12 12 10 9 8 8 7 8 8 6 5 5 5 6 7
2 2 2 2 2 3 3 3 3 4 4 4 5 5 6 7 10 10 10 7 6 7 7 7 8 8 9 8 10 11 12 13 13 11 10 10 9 8 7 8 7 8 8
2 3 3 2 3 3 3 4 4 4 4 5 6 6 6 8 10 11 11 7 7 8 8 8 9 8 9 9 8 9 9 10 11 11 11 11 10 9 9 9 9 9 8
3 3 3 3 3 3 4 4 4 4 5 5 6 6 7 8 10 11 10 6 7 8 9 9 9 9 12 12 10 10 10 10 12 14 15 15 15 15 13 7 7 7 8
3 3 3 3 4 4 4 5 4 5 5 6 6 6 7 8 11 12 11 6 7 8 8 8 11 12 13 13 9 9 10 10 9 9 11 13 12 13 14 11 9 8 7
2 2 3 3 4 4 4 4 4 5 5 5 7 7 7 8 10 12 12 7 7 7 8 7 8 12 14 14 12 9 11 10 8 8 8 8 8 7 8 9 9 8 9
2 3 3 4 4 4 4 4 4 4 5 5 6 7 6 6 9 10 12 12 10 8 8 7 8 13 14 14 12 12 14 11 7 7 8 8 8 7 7 8 10 11 11
2 3 3 4 4 4 4 4 4 4 4 5 5 6 5 5 6 11 12 13 13 9 8 11 13 14 13 11 13 14 11 8 7 8 9 9 7 7 7 7 8 9 11
2 3 3 3 4 4 4 4 4 4 5 5 5 6 6 5 5 5 6 8 10 10 8 11 13 14 11 11 10 9 7 7 8 8 8 7 6 6 7 6 6 6 7
2 3 3 3 3 3 4 4 5 5 6 6 5 6 6 7 8 10 9 7 7 8 7 6 6 6 6 6 6 6 6 6 7 7 7 7 7 7 7 6 6 6 7
2 3 3 3 3 3 3 4 6 7 9 10 10 9 8 11 13 14 15 15 14 12 9 6 7 7 7 7 7 7 7 7 7 7 7 7 8 8 7 6 6 7 8
3 3 3 3 3 3 4 4 5 6 8 9 10 11 11 12 13 13 13 13 12 11 7 6 7 7 7 7 7 7 7 7 7 7 7 8 8 8 8 7 7 7 8
3 4 4 3 3 3 4 4 4 4 5 5 7 10 11 11 11 11 11 9 7 6 5 6 7 7 7 7 7 7 7 7 7 7 7 7 8 8 8 8 8 8 8
3 2 3 3 3 3 3 3 3 4 4 5 5 6 9 10 10 9 8 5 5 5 5 6 6 6 7 7 7 7 7 7 8 7 8 8 8 8 8 8 8 10 9
3 5 4 3 2 3 3 3 3 3 4 5 5 5 6 6 5 5 5 4 5 6 6 6 6 6 6 7 7 7 7 8 8 8 8 8 8 8 9 9 8 8 7
3 3 5 4 3 3 3 3 3 4 4 5 5 6 9 6 5 5 5 5 5 6 6 6 6 6 6 6 7 7 8 8 8 8 8 8 8 8 8 8 8 8 7
3 3 2 2 3 3 3 3 3 4 4 5 5 6 10 6 5 5 5 5 5 5 6 6 6 6 6 6 7 7 8 8 8 8 8 8 8 8 7 8 8 7 7
3 3 2 3 3 4 4 3 3 4 4 5 5 5 5 5 5 5 5 5 5 6 6 6 6 7 7 8 8 8 8 8 8 8 8 8 8 7 7 8 8 8 8
3 3 3 3 3 3 3 3 4 4 4 5 5 5 5 5 5 6 6 5 6 6 7 7 7 9 11 10 10 10 11 11 11 10 10 8 8 8 7 8 8 8 8
3 3 3 3 3 3 4 4 4 4 4 5 5 5 5 6 6 6 6 6 6 7 8 8 8 9 11 13 12 12 14 15 14 11 10 8 8 8 8 7 7 7 7
3 3 3 3 3 3 4 4 4 5 5 5 5 5 6 6 6 6 6 6 6 7 8 8 10 11 13 13 13 14 15 15 14 14 9 7 7 7 7 6 7 7 7
Wind_Direction
163 166 159 161 161 152 163 175 184 225 251 251 257 253 251 252 259 249 249 251 253 260 262 261 261 265 266 263 267 263 257 250 264 279 273 271 262 271 285 283 281 278 281
166 164 164 168 169 170 185 196 208 227 248 263 267 261 260 262 255 245 247 252 250 255 258 259 262 265 263 265 262 261 259 254 253 268 275 270 265 259 261 272 283 280 278
160 164 168 178 187 198 204 209 229 242 252 264 264 259 260 261 260 257 247 248 249 251 253 254 258 258 262 263 264 265 263 264 259 261 266 266 268 268 269 275 277 278 278
156 170 189 204 208 210 211 220 234 242 247 253 263 264 266 267 265 264 261 254 252 255 257 259 260 255 257 261 262 259 263 263 265 264 260 263 264 263 256 267 276 270 274
168 188 210 216 218 220 222 230 246 252 258 257 261 265 268 268 262 260 261 260 258 261 262 261 261 259 260 260 262 261 261 260 263 262 258 261 259 259 256 260 268 276 275
181 209 220 217 221 223 227 234 245 252 255 256 257 260 263 267 268 269 269 262 261 263 267 268 266 262 264 265 265 265 262 260 258 257 256 255 257 255 255 258 265 273 277
199 220 224 223 231 238 245 249 248 248 254 258 258 258 261 261 265 267 267 265 258 258 262 267 270 266 268 265 269 270 267 264 260 259 256 254 257 255 253 254 253 258 263
216 227 230 229 244 252 250 251 252 254 252 256 259 256 260 260 264 267 271 269 263 261 259 258 261 265 263 265 265 267 264 262 260 257 257 259 257 254 247 250 251 259 267
231 232 233 233 242 248 252 256 261 261 262 260 261 256 255 262 264 265 268 265 264 265 263 260 258 258 263 266 267 266 268 266 266 265 265 264 262 260 255 254 254 255 265
245 248 247 245 246 250 253 260 264 264 266 268 269 263 256 257 263 264 265 258 261 265 265 262 259 260 265 266 265 264 267 270 272 273 271 271 268 262 255 243 240 245 258
258 267 266 262 258 256 259 263 261 266 265 265 268 268 259 259 264 266 265 258 254 261 265 265 263 266 268 268 268 266 269 276 276 272 273 271 270 263 254 246 240 238 244
256 266 269 269 268 266 258 265 263 258 260 263 266 269 263 261 266 266 265 267 267 262 263 265 266 268 270 271 271 271 275 280 279 276 269 266 267 266 261 254 247 243 243
263 266 268 273 271 264 257 261 262 256 258 263 263 265 267 266 264 268 269 271 271 269 267 267 270 273 274 272 271 273 274 270 268 269 268 265 265 266 270 268 257 253 251
266 274 272 270 271 269 267 261 258 256 259 263 264 268 274 274 271 270 269 273 274 274 274 271 271 273 273 272 273 272 266 261 262 264 269 271 270 268 266 266 262 253 255
265 274 278 278 274 276 277 269 266 262 261 266 267 270 274 275 274 278 281 276 272 271 279 276 270 270 269 267 268 267 264 263 263 263 266 272 272 269 268 265 263 255 252
268 278 279 278 276 277 280 292 290 281 282 281 281 280 279 279 282 281 281 281 280 278 277 269 267 266 267 267 268 270 268 265 263 264 265 267 269 270 271 270 263 260 257
265 276 277 274 269 271 273 277 290 298 293 289 289 291 289 287 287 286 287 286 279 276 271 265 265 266 267 268 269 269 269 269 267 263 264 266 269 270 270 268 265 263 262
280 285 284 273 269 272 274 276 279 287 298 301 301 302 303 300 299 298 298 297 283 273 267 266 267 268 268 268 269 270 272 272 270 267 265 264 265 266 267 265 262 263 262
295 289 283 275 272 276 282 285 288 288 292 300 306 309 311 309 307 305 304 291 281 278 276 271 270 270 271 271 271 270 272 272 271 268 266 264 264 264 264 263 263 264 260
296 296 299 291 284 285 285 288 295 297 297 299 303 308 313 311 304 302 296 284 278 275 274 273 274 274 274 273 272 271 271 271 272 269 267 264 263 260 260 262 262 261 257
298 297 303 303 295 292 293 295 298 300 302 303 302 304 308 307 300 296 292 284 279 280 281 279 277 276 274 274 274 273 272 272 270 269 268 265 261 260 259 258 258 258 259
293 289 290 292 297 299 301 300 303 302 303 303 305 308 311 312 301 295 294 292 288 284 282 283 282 279 276 274 273 272 272 273 272 272 271 268 263 259 258 259 258 256 254
296 300 308 303 302 305 313 315 310 304 303 304 306 308 310 310 306 300 297 297 295 293 289 285 284 283 282 280 275 271 271 270 270 269 271 272 268 261 256 256 255 254 253
309 309 306 307 311 312 311 310 308 305 305 307 309 309 309 309 308 306 303 300 298 294 292 288 283 283 284 285 282 278 275 275 272 265 261 261 264 263 257 253 252 250 251
311 308 310 310 311 311 311 310 310 310 309 310 311 311 312 312 310 310 309 305 301 297 294 293 289 286 286 286 284 283 284 286 285 279 263 256 257 258 255 253 252 250 250
317 309 307 307 306 305 306 309 309 309 309 310 312 312 313 312 310 311 312 311 310 303 296 294 292 292 292 291 290 292 293 293 292 290 278 258 257 259 256 252 249 248 250
Height
1485 1487 1488 1489 1491 1492 1494 1495 1496 1497 1498 1498 1499 1499 1500 1500 1500 1501 1501 1502 1502 1503 1504 1504 1504 1505 1505 1506 1507 1507 1507 1507 1505 1503 1504 1504 1503 1503 1503 1503 1502 1502 1502
1482 1484 1485 1486 1488 1489 1490 1491 1492 1492 1493 1494 1494 1494 1495 1495 1496 1496 1496 1497 1497 1498 1498 1499 1499 1500 1500 1500 1501 1501 1501 1502 1501 1498 1498 1498 1498 1498 1497 1497 1496 1496 1496
1479 1480 1481 1483 1484 1485 1486 1487 1488 1488 1489 1489 1489 1490 1490 1490 1490 1491 1491 1492 1492 1493 1493 1493 1494 1494 1494 1495 1495 1495 1496 1496 1495 1494 1492 1492 1492 1492 1492 1491 1491 1490 1490
1475 1476 1477 1479 1480 1481 1481 1483 1483 1484 1484 1484 1484 1485 1485 1485 1485 1485 1486 1486 1486 1487 1487 1488 1488 1488 1489 1489 1489 1490 1490 1490 1489 1488 1487 1486 1486 1486 1486 1485 1484 1484 1484
1471 1472 1474 1475 1476 1476 1477 1478 1478 1478 1478 1479 1479 1479 1479 1479 1479 1480 1480 1480 1481 1481 1481 1482 1482 1483 1483 1484 1484 1484 1484 1484 1483 1482 1481 1480 1480 1480 1480 1480 1479 1478 1477
1467 1468 1469 1470 1471 1472 1472 1473 1473 1473 1473 1474 1474 1474 1474 1474 1474 1475 1475 1475 1475 1475 1475 1475 1476 1476 1477 1477 1477 1477 1478 1478 1477 1476 1475 1474 1473 1474 1475 1474 1474 1473 1470
1463 1464 1465 1466 1466 1467 1468 1468 1468 1468 1468 1468 1468 1468 1468 1468 1469 1469 1470 1470 1469 1469 1469 1469 1469 1470 1470 1470 1470 1470 1470 1470 1471 1471 1469 1467 1468 1468 1469 1468 1467 1466 1465
1459 1460 1461 1461 1462 1462 1463 1463 1463 1463 1463 1462 1462 1462 1463 1463 1463 1463 1464 1464 1463 1463 1463 1463 1463 1463 1463 1463 1463 1462 1462 1462 1463 1463 1462 1461 1461 1462 1462 1462 1461 1460 1459
1455 1456 1456 1457 1457 1457 1458 1458 1458 1458 1457 1457 1457 1457 1457 1456 1457 1458 1458 1458 1457 1457 1457 1457 1456 1456 1456 1456 1456 1455 1455 1455 1456 1456 1455 1454 1454 1454 1455 1455 1454 1453 1450
1451 1452 1452 1452 1453 1453 1453 1453 1453 1453 1452 1451 1451 1451 1451 1451 1451 1452 1452 1452 1451 1450 1450 1450 1450 1449 1450 1450 1450 1449 1448 1447 1448 1447 1446 1446 1446 1446 1446 1447 1446 1446 1444
1448 1448 1448 1448 1448 1448 1448 1448 1447 1447 1446 1446 1445 1445 1445 1445 1445 1446 1446 1446 1445 1444 1444 1443 1443 1443 1443 1443 1443 1442 1441 1441 1441 1440 1439 1438 1438 1438 1438 1438 1438 1438 1437
1444 1444 1444 1444 1444 1443 1443 1443 1442 1442 1441 1440 1439 1439 1439 1439 1439 1439 1439 1440 1439 1439 1437 1437 1436 1437 1436 1436 1436 1435 1435 1435 1434 1433 1431 1430 1430 1430 1430 1430 1430 1430 1429
1440 1439 1439 1439 1439 1439 1438 1437 1437 1437 1436 1435 1434 1433 1433 1433 1433 1433 1433 1433 1433 1433 1431 1431 1430 1430 1430 1429 1428 1428 1428 1428 1427 1426 1424 1423 1423 1422 1422 1422 1421 1422 1421
1436 1435 1435 1435 1434 1434 1434 1433 1433 1432 1431 1430 1429 1428 1427 1427 1427 1427 1427 1426 1426 1426 1425 1424 1424 1423 1423 1422 1421 1421 1421 1420 1420 1418 1417 1416 1416 1415 1414 1414 1413 1413 1413
1432 1432 1431 1431 1430 1430 1429 1429 1428 1427 1427 1426 1425 1424 1423 1421 1421 1422 1421 1420 1420 1419 1419 1418 1417 1416 1415 1414 1414 1414 1413 1413 1412 1411 1411 1410 1409 1408 1406 1406 1406 1406 1405
1429 1428 1427 1427 1426 1425 1424 1424 1423 1423 1422 1422 1421 1420 1418 1418 1416 1416 1415 1414 1414 1413 1413 1411 1410 1409 1409 1408 1407 1407 1406 1405 1405 1404 1404 1403 1402 1400 1399 1398 1398 1397 1396
1425 1425 1424 1423 1422 1421 1420 1419 1418 1417 1417 1417 1416 1414 1413 1412 1411 1410 1409 1408 1407 1407 1406 1404 1404 1403 1402 1402 1401 1400 1399 1399 1398 1397 1396 1396 1395 1393 1392 1391 1390 1389 1388
1422 1422 1421 1420 1419 1418 1417 1416 1415 1413 1411 1410 1410 1409 1408 1407 1405 1404 1403 1402 1401 1400 1399 1398 1398 1397 1396 1395 1394 1394 1393 1392 1391 1390 1389 1388 1387 1386 1385 1384 1383 1382 1381
1419 1418 1417 1416 1416 1415 1414 1413 1411 1410 1408 1407 1405 1404 1403 1402 1400 1399 1398 1397 1395 1394 1394 1393 1392 1391 1390 1389 1388 1387 1386 1385 1384 1383 1382 1381 1380 1379 1377 1376 1375 1374 1374
1416 1416 1415 1414 1412 1411 1410 1409 1408 1407 1405 1403 1402 1400 1398 1397 1395 1394 1393 1392 1391 1389 1388 1387 1386 1385 1384 1383 1382 1380 1379 1378 1377 1376 1374 1373 1373 1372 1370 1369 1368 1367 1366
1414 1412 1412 1411 1410 1409 1407 1406 1405 1404 1402 1400 1398 1397 1396 1394 1392 1390 1388 1387 1386 1384 1383 1382 1380 1379 1378 1377 1375 1374 1372 1371 1370 1369 1367 1366 1365 1364 1363 1362 1361 1361 1360
1411 1410 1409 1408 1407 1406 1404 1403 1402 1401 1399 1397 1395 1393 1392 1390 1388 1386 1384 1382 1381 1379 1378 1377 1375 1373 1372 1370 1369 1367 1366 1364 1363 1362 1360 1359 1358 1357 1356 1355 1355 1354 1354
1409 1408 1406 1405 1404 1403 1402 1400 1399 1397 1396 1394 1392 1390 1388 1386 1384 1382 1380 1378 1376 1375 1373 1371 1369 1367 1366 1365 1363 1361 1359 1357 1356 1355 1354 1352 1351 1350 1349 1348 1348 1348 1348
1406 1405 1404 1403 1402 1400 1399 1397 1396 1394 1393 1391 1389 1386 1384 1382 1380 1378 1376 1374 1372 1370 1368 1366 1364 1362 1360 1358 1357 1355 1353 1351 1350 1349 1347 1346 1344 1343 1342 1342 1342 1342 1342
1404 1402 1401 1400 1399 1398 1396 1395 1393 1391 1390 1388 1385 1383 1381 1379 1376 1374 1372 1370 1367 1365 1363 1361 1359 1357 1355 1353 1351 1349 1347 1345 1344 1343 1341 1340 1338 1337 1336 1336 1336 1336 1336
1401 1400 1399 1398 1396 1395 1393 1392 1390 1388 1386 1384 1382 1380 1378 1375 1373 1371 1368 1366 1363 1361 1358 1356 1354 1352 1350 1347 1345 1343 1341 1340 1338 1337 1336 1334 1333 1332 1331 1331 1331 1331 1331